Location: Asheville, NC
(35.6000°N, 82.5500°W)
Time: 01:29:18
(UTC-05:00)

Vanguard 1 Rocket - Pass Details

Date: 23 January 2018
Orbit: 655 x 4222 km, 34.3° (Epoch: 23 February)

Event Time Altitude Azimuth Distance (km) Brightness Sun altitude
Rises 04:55:17 0° 224° (SW) 8,133 11.9 -32.5°
Reaches altitude 10° 05:01:48 10° 219° (SW) 6,735 11.5 -31.2°
Maximum altitude 05:19:59 45° 155° (SSE) 3,046 10.1 -27.5°
Drops below altitude 10° 05:29:55 10° 87° (E) 3,823 11.6 -25.5°
Sets 05:32:29 0° 80° (E) 4,471 12.2 -25.0°
